Location: Roc des P�zouls
(43.9667°N, 3.5500°E)
Time: 23:57:19
(UTC+00:00)

ATLAS 2AS CENTAUR R/B - Pass Details

Date: 14 November 2019
Orbit: 926 x 1286 km, 63.7° (Epoch: 02 December)

Event Time Altitude Azimuth Distance (km) Brightness Sun altitude
Exits shadow 05:41:11 - 323° (NW) 3,807 5.1 -10.6°
Reaches altitude 10° 05:42:56 10° 324° (NW) 3,194 4.7 -10.3°
Maximum altitude 05:50:39 87° 54° (NE) 1,166 3.0 -8.9°
Drops below altitude 10° 05:57:40 10° 144° (SE) 2,922 5.9 -7.7°
Sets 06:00:12 0° 145° (SE) 3,824 6.6 -7.3°
